Location: Csohesd
(46.2500°N, 22.6167°E)
Time: 04:14:28
(UTC+00:00)

USA 215 - Pass Details

Date: 21 October 2021
Orbit: 1099 x 1109 km, 123.0° (Epoch: 20 November)

Event Time Altitude Azimuth Distance (km) Brightness Sun altitude
Exits shadow 15:59:54 - 52° (NE) 3,726 5.5 -5.4°
Reaches altitude 10° 16:01:53 10° 50° (NE) 2,965 5.0 -5.8°
Maximum altitude 16:08:20 64° 331° (NNW) 1,217 3.7 -6.9°
Drops below altitude 10° 16:14:46 10° 252° (WSW) 2,962 7.1 -8.0°
Sets 16:17:16 0° 249° (WSW) 3,920 8.1 -8.4°
